Location: �A�n Sefra
(34.9681°N, 0.4346°E)
Time: 01:32:09
(UTC+00:00)

Cosmos 2058 - Pass Details

Date: 21 October 2019
Orbit: 562 x 584 km, 82.5° (Epoch: 19 November)

Event Time Altitude Azimuth Distance (km) Brightness Sun altitude
Rises 19:07:46 0° 353° (N) 2,812 6.6 -23.5°
Reaches altitude 10° 19:09:58 10° 353° (N) 1,907 5.7 -23.9°
Enters shadow 19:12:59 46° 351° (N) 785 3.6 -24.6°
